Location: Saint Louis
(38.6272°N, 90.1978°W)
Time: 01:28:15
(UTC-05:00)

ISS - Pass Details

Date: 22 July 2013
Orbit: 402 x 403 km, 51.6° (Epoch: 25 June)

Event Time Altitude Azimuth Distance (km) Brightness Sun altitude
Exits shadow 02:40:12 21° 27° (NNE) 969 -0.7 -27.3°
Drops below altitude 10° 02:41:34 10° 39° (NE) 1,471 0.4 -27.1°
Enters shadow 03:39:21 -67° 240° (WSW) 12,196 4.1 -21.2°
